M I D A S
Marine Information and Data Acquisition System
Tripno 1739 of the Zeeleeuw from 2009-07-27 06:58:48 to 2009-07-27 13:02:44
Back to CruiseResearch ActivitiesStationsMapUnderway DataData graphs

EquipmentUnitsComments
TimeDGPSUTC
LatitudeDGPSDM.mWGS84
LongitudeDGPSDM.mWGS84
SpeedMeteo Stationm/sRelative wind speed
DirectionMeteo StationdegRelative wind direction
TemperatureMeteo Stationdeg CelciusAir temperature
PressureMeteo StationPaAtmospheric pressure
HumidityMeteo Station%Relative humidity
Missing or incorrect values are displayed as -999
Metereological data collected by the RV Zeeleeuw from 2009-07-27 06:45:13 to 2009-07-27 13:10:34
Time Latitude Longitude Speed Direction Temperature Pressure Humidity
2009-07-27 06:46 51°13.663 2°55.958 1.5 22 17.8 101010 53
2009-07-27 06:47 51°13.664 2°55.959 1.1 27 17.8 101010 53
2009-07-27 06:48 51°13.664 2°55.96 1.7 17 17.9 101020 54
2009-07-27 06:49 51°13.664 2°55.96 1.1 33 17.9 101020 53
2009-07-27 06:50 51°13.664 2°55.96 0.6 34 18 101020 53
2009-07-27 06:51 51°13.664 2°55.96 0.7 34 18 101020 54
2009-07-27 06:52 51°13.662 2°55.962 0.4 34 18 101010 54
2009-07-27 06:53 51°13.662 2°55.962 0.3 34 18.1 101010 54
2009-07-27 06:54 51°13.663 2°55.962 -999 35 18.2 101020 54
2009-07-27 06:55 51°13.663 2°55.96 -999 36 18.3 101010 54
2009-07-27 06:56 51°13.663 2°55.961 -999 37 18.4 101020 54
2009-07-27 06:57 51°13.662 2°55.961 0.5 41 18.4 101020 54
2009-07-27 06:58 51°13.666 2°55.942 1.6 34 18.6 101020 55
2009-07-27 06:59 51°13.688 2°55.853 2.9 38 18.5 101020 53
2009-07-27 07:00 51°13.696 2°55.767 3.7 36 18.3 101020 53
2009-07-27 07:01 51°13.699 2°55.737 1.7 52 18.2 101020 54
2009-07-27 07:02 51°13.701 2°55.74 1.9 44 18.3 101020 54
2009-07-27 07:03 51°13.706 2°55.732 3 317 18.3 101020 54
2009-07-27 07:04 51°13.789 2°55.667 5.1 308 18.3 101010 53
2009-07-27 07:05 51°13.911 2°55.574 7.1 327 18.3 101010 54
2009-07-27 07:06 51°14.04 2°55.479 5.4 329 18.3 101010 54
2009-07-27 07:07 51°14.166 2°55.375 6.4 308 18.2 101010 54
2009-07-27 07:08 51°14.273 2°55.221 6.6 301 18.1 101010 56
2009-07-27 07:09 51°14.365 2°55.039 5.9 320 18.1 101000 57
2009-07-27 07:10 51°14.49 2°54.878 7.2 320 18.1 101000 56
2009-07-27 07:11 51°14.646 2°54.72 7.2 304 18 100990 55
2009-07-27 07:12 51°14.815 2°54.56 8 322 18 100990 56
2009-07-27 07:13 51°14.985 2°54.406 8 303 18 101000 57
2009-07-27 07:14 51°15.158 2°54.255 6.7 320 18 101000 56
2009-07-27 07:15 51°15.329 2°54.102 7.9 307 17.9 101000 56
2009-07-27 07:16 51°15.503 2°53.955 9 320 17.9 101000 57
2009-07-27 07:17 51°15.675 2°53.803 7.1 303 17.9 100990 57
2009-07-27 07:18 51°15.849 2°53.652 8.4 319 17.9 100990 58
2009-07-27 07:19 51°16.019 2°53.502 8.3 318 17.8 100990 58
2009-07-27 07:20 51°16.194 2°53.351 7.1 318 17.8 100990 56
2009-07-27 07:21 51°16.367 2°53.191 8 305 17.8 100990 56
2009-07-27 07:22 51°16.538 2°53.033 7.7 304 17.7 100990 57
2009-07-27 07:23 51°16.709 2°52.885 7.3 321 17.7 100990 56
2009-07-27 07:24 51°16.882 2°52.734 7.8 303 17.7 100990 55
2009-07-27 07:25 51°17.066 2°52.605 7.5 317 17.8 100990 57
2009-07-27 07:26 51°17.247 2°52.487 7 315 17.8 100980 57
2009-07-27 07:27 51°17.436 2°52.407 6 318 17.8 100980 55
2009-07-27 07:28 51°17.63 2°52.47 5.3 319 17.8 100990 57
2009-07-27 07:29 51°17.798 2°52.617 3.5 302 17.9 100990 57
2009-07-27 07:30 51°17.92 2°52.854 2.9 326 17.8 100990 56
2009-07-27 07:31 51°18.028 2°53.103 3.6 324 17.8 100990 55
2009-07-27 07:32 51°18.14 2°53.36 3.2 323 17.9 100990 57
2009-07-27 07:33 51°18.249 2°53.615 3.5 328 17.9 100990 56
2009-07-27 07:34 51°18.357 2°53.87 3.8 324 17.9 100990 55
2009-07-27 07:35 51°18.462 2°54.129 3.9 330 18 100990 55
2009-07-27 07:36 51°18.564 2°54.385 3 331 18 100980 55
2009-07-27 07:37 51°18.67 2°54.648 3.9 327 18.1 100980 56
2009-07-27 07:38 51°18.775 2°54.897 3.2 330 18 100990 55
2009-07-27 07:39 51°18.881 2°55.158 3.7 328 18 100990 56
2009-07-27 07:40 51°18.986 2°55.414 4.1 331 18 100990 55
2009-07-27 07:41 51°19.092 2°55.667 2.9 328 18.1 100990 57
2009-07-27 07:42 51°19.199 2°55.914 3.7 332 18.1 100990 56
2009-07-27 07:43 51°19.304 2°56.168 3.9 331 18.1 100980 55
2009-07-27 07:44 51°19.411 2°56.424 3.9 332 18.1 100980 56
2009-07-27 07:45 51°19.516 2°56.678 3.6 329 18.2 100980 56
2009-07-27 07:46 51°19.62 2°56.932 3.4 325 18.1 100990 56
2009-07-27 07:47 51°19.724 2°57.181 3.6 331 18.1 100980 55
2009-07-27 07:48 51°19.822 2°57.444 3.5 333 18.1 100980 56
2009-07-27 07:49 51°19.906 2°57.715 3.2 301 18.1 100980 55
2009-07-27 07:50 51°19.989 2°57.986 4.1 327 18.1 100980 57
2009-07-27 07:51 51°20.072 2°58.256 3.7 330 18.1 100980 55
2009-07-27 07:52 51°20.154 2°58.526 3.8 331 18.1 100980 56
2009-07-27 07:53 51°20.233 2°58.798 3.7 327 18.1 100970 56
2009-07-27 07:54 51°20.294 2°59.08 3.5 331 18.2 100980 56
2009-07-27 07:55 51°20.346 2°59.366 3.3 331 18.2 100970 57
2009-07-27 07:56 51°20.395 2°59.652 3.3 336 18.2 100980 56
2009-07-27 07:57 51°20.446 2°59.938 3.6 333 18.3 100980 57
2009-07-27 07:58 51°20.5 3°0.216 3.3 337 18.3 100980 56
2009-07-27 07:59 51°20.552 3°0.505 3.5 332 18.3 100980 57
2009-07-27 08:00 51°20.599 3°0.792 3.1 329 18.3 100980 56
2009-07-27 08:01 51°20.649 3°1.076 3 333 18.2 100980 57
2009-07-27 08:02 51°20.7 3°1.36 2.5 334 18.3 100980 56
2009-07-27 08:03 51°20.753 3°1.639 2.6 330 18.3 100970 58
2009-07-27 08:04 51°20.813 3°1.912 2.8 326 18.3 100970 56
2009-07-27 08:05 51°20.874 3°2.179 2.3 326 18.4 100980 57
2009-07-27 08:06 51°20.913 3°2.453 1.7 335 18.5 100980 58
2009-07-27 08:07 51°20.939 3°2.724 2.3 342 18.6 100970 56
2009-07-27 08:08 51°20.971 3°3.003 2.6 336 18.7 100980 58
2009-07-27 08:09 51°21.009 3°3.275 1.9 336 18.7 100980 57
2009-07-27 08:10 51°21.043 3°3.546 2.6 337 18.6 100980 57
2009-07-27 08:11 51°21.079 3°3.815 1.8 337 18.6 100970 57
2009-07-27 08:12 51°21.114 3°4.086 2.5 332 18.7 100980 58
2009-07-27 08:13 51°21.146 3°4.358 2.1 336 18.8 100980 57
2009-07-27 08:14 51°21.177 3°4.629 1.6 336 18.8 100980 58
2009-07-27 08:15 51°21.206 3°4.899 2 332 18.7 100980 57
2009-07-27 08:16 51°21.211 3°5.172 3.3 344 18.6 100980 57
2009-07-27 08:17 51°21.203 3°5.445 2.6 343 18.7 100980 57
2009-07-27 08:18 51°21.195 3°5.717 2.3 342 18.5 100970 58
2009-07-27 08:19 51°21.194 3°5.984 2.6 346 18.4 100980 57
2009-07-27 08:20 51°21.189 3°6.236 1.7 1 18.3 100970 57
2009-07-27 08:21 51°21.18 3°6.431 1.6 15 18.3 100970 57
2009-07-27 08:22 51°21.175 3°6.613 1.1 12 18.4 100970 58
2009-07-27 08:23 51°21.177 3°6.793 0.2 5 18.4 100970 58
2009-07-27 08:24 51°21.198 3°6.97 -999 3 18.5 100970 58
2009-07-27 08:25 51°21.232 3°7.139 1.6 241 18.8 100970 59
2009-07-27 08:26 51°21.301 3°7.282 1.5 304 19 100960 58
2009-07-27 08:27 51°21.377 3°7.417 1.8 309 19.2 100960 57
2009-07-27 08:28 51°21.428 3°7.511 1.6 38 19.3 100960 58
2009-07-27 08:29 51°21.394 3°7.557 4.8 7 19.3 100950 56
2009-07-27 08:30 51°21.324 3°7.505 4.5 347 19 100950 56
2009-07-27 08:31 51°21.291 3°7.383 4.5 325 18.7 100940 58
2009-07-27 08:32 51°21.317 3°7.28 4.4 248 18.6 100940 58
2009-07-27 08:33 51°21.367 3°7.271 2.9 65 18.6 100950 57
2009-07-27 08:34 51°21.401 3°7.348 2.3 36 18.6 100950 59
2009-07-27 08:35 51°21.448 3°7.429 1.5 59 18.6 100950 57
2009-07-27 08:36 51°21.494 3°7.508 2.3 38 18.6 100960 57
2009-07-27 08:37 51°21.547 3°7.561 2.4 309 18.7 100950 58
2009-07-27 08:38 51°21.602 3°7.605 2 267 18.7 100950 58
2009-07-27 08:39 51°21.651 3°7.656 1.7 37 18.7 100950 57
2009-07-27 08:40 51°21.676 3°7.727 0.7 35 18.7 100950 56
2009-07-27 08:41 51°21.695 3°7.803 1.5 33 18.7 100950 58
2009-07-27 08:42 51°21.715 3°7.879 1.2 300 18.7 100950 57
2009-07-27 08:43 51°21.734 3°7.956 1.2 38 18.7 100940 57
2009-07-27 08:44 51°21.753 3°8.032 1.2 41 18.7 100950 56
2009-07-27 08:45 51°21.771 3°8.108 1.4 33 18.7 100950 57
2009-07-27 08:46 51°21.773 3°8.186 2.5 41 18.6 100960 56
2009-07-27 08:47 51°21.756 3°8.267 3.1 36 18.5 100950 55
2009-07-27 08:48 51°21.711 3°8.335 2.7 24 18.4 100950 56
2009-07-27 08:49 51°21.638 3°8.365 4.9 11 18.4 100940 56
2009-07-27 08:50 51°21.553 3°8.332 4.9 2 18.4 100940 57
2009-07-27 08:51 51°21.473 3°8.251 6.4 349 18.2 100950 55
2009-07-27 08:52 51°21.414 3°8.14 5.9 339 18 100950 56
2009-07-27 08:53 51°21.377 3°8.025 4.7 334 18 100950 56
2009-07-27 08:54 51°21.355 3°7.906 5 325 18 100950 55
2009-07-27 08:55 51°21.341 3°7.787 5.2 307 18.1 100960 55
2009-07-27 08:56 51°21.326 3°7.668 6.1 300 18.2 100960 54
2009-07-27 08:57 51°21.305 3°7.551 5.8 333 18.3 100960 56
2009-07-27 08:58 51°21.282 3°7.433 6.6 329 18.3 100960 55
2009-07-27 08:59 51°21.26 3°7.317 6.1 330 18.3 100960 55
2009-07-27 09:00 51°21.239 3°7.205 5.9 332 18.3 100950 57
2009-07-27 09:01 51°21.219 3°7.096 6.6 335 18.4 100960 57
2009-07-27 09:02 51°21.199 3°6.989 6.3 333 18.3 100960 57
2009-07-27 09:03 51°21.178 3°6.883 7 333 18.3 100970 54
2009-07-27 09:04 51°21.158 3°6.777 6.1 334 18.3 100970 57
2009-07-27 09:05 51°21.143 3°6.671 5.7 323 18.3 100970 56
2009-07-27 09:06 51°21.138 3°6.57 5.8 309 18.3 100960 56
2009-07-27 09:07 51°21.139 3°6.47 7.3 307 18.3 100950 57
2009-07-27 09:08 51°21.151 3°6.37 6.4 303 18.2 100950 55
2009-07-27 09:09 51°21.164 3°6.286 6.7 304 18.2 100950 56
2009-07-27 09:10 51°21.171 3°6.215 5.1 301 18.3 100960 57
2009-07-27 09:11 51°21.174 3°6.148 7.5 309 18.4 100960 57
2009-07-27 09:12 51°21.177 3°6.082 5.3 305 18.4 100970 57
2009-07-27 09:13 51°21.187 3°5.988 6.3 303 18.3 100970 58
2009-07-27 09:14 51°21.177 3°5.859 8.9 334 18.3 100960 58
2009-07-27 09:15 51°21.143 3°5.624 11.8 330 18.2 100970 59
2009-07-27 09:16 51°21.09 3°5.293 10.3 331 18.2 100960 59
2009-07-27 09:17 51°21.03 3°4.954 10.1 331 18.1 100950 59
2009-07-27 09:18 51°20.969 3°4.615 11.8 332 18.1 100950 59
2009-07-27 09:19 51°20.909 3°4.276 10.5 333 18.1 100960 59
2009-07-27 09:20 51°20.844 3°3.939 11.1 332 18.1 100970 60
2009-07-27 09:21 51°20.779 3°3.603 10.6 331 18 100970 59
2009-07-27 09:22 51°20.717 3°3.266 11.2 333 18 100980 60
2009-07-27 09:23 51°20.651 3°2.93 11 333 18.1 100990 60
2009-07-27 09:24 51°20.587 3°2.595 13.5 332 18 101000 58
2009-07-27 09:25 51°20.523 3°2.26 11.7 333 17.9 101000 57
2009-07-27 09:26 51°20.458 3°1.926 11.7 333 18 101000 58
2009-07-27 09:27 51°20.394 3°1.593 14.1 334 17.9 101000 58
2009-07-27 09:28 51°20.331 3°1.26 13 334 18 101000 58
2009-07-27 09:29 51°20.271 3°0.928 13.9 335 18 101000 59
2009-07-27 09:30 51°20.213 3°0.597 13.8 337 18 101010 58
2009-07-27 09:31 51°20.155 3°0.268 11.8 336 18 101010 59
2009-07-27 09:32 51°20.099 2°59.943 13.6 334 18.1 101020 59
2009-07-27 09:33 51°20.04 2°59.607 12.6 338 18 101010 59
2009-07-27 09:34 51°19.979 2°59.284 12.9 335 18 101000 59
2009-07-27 09:35 51°19.91 2°58.956 12.1 336 18 100980 58
2009-07-27 09:36 51°19.825 2°58.65 12.6 338 17.9 100980 57
2009-07-27 09:37 51°19.733 2°58.338 12.2 338 17.9 100980 58
2009-07-27 09:38 51°19.649 2°58.032 10.9 338 18 101000 59
2009-07-27 09:39 51°19.561 2°57.726 11.9 336 17.9 100990 59
2009-07-27 09:40 51°19.472 2°57.422 11.6 338 18 100990 59
2009-07-27 09:41 51°19.375 2°57.128 9.8 340 18 100980 57
2009-07-27 09:42 51°19.268 2°56.836 11.6 341 17.9 100980 58
2009-07-27 09:43 51°19.16 2°56.554 10.4 339 18 100980 57
2009-07-27 09:44 51°19.052 2°56.272 11 340 17.9 100980 58
2009-07-27 09:45 51°18.945 2°55.989 11.4 342 18 100970 59
2009-07-27 09:46 51°18.836 2°55.707 9.3 344 17.9 100960 59
2009-07-27 09:47 51°18.728 2°55.425 11 340 17.9 100950 60
2009-07-27 09:48 51°18.605 2°55.16 9.9 344 17.8 100950 59
2009-07-27 09:49 51°18.477 2°54.901 9.8 347 17.8 100940 59
2009-07-27 09:50 51°18.348 2°54.646 10 344 17.7 100940 59
2009-07-27 09:51 51°18.219 2°54.391 8.9 344 17.7 100940 58
2009-07-27 09:52 51°18.106 2°54.12 9.2 342 17.8 100950 61
2009-07-27 09:53 51°17.998 2°53.85 9.3 341 17.8 100950 62
2009-07-27 09:54 51°17.889 2°53.575 9.5 342 17.8 100950 60
2009-07-27 09:55 51°17.78 2°53.301 9.5 340 17.8 100960 59
2009-07-27 09:56 51°17.674 2°53.021 10.1 338 17.9 100980 60
2009-07-27 09:57 51°17.564 2°52.741 10.2 338 17.9 101000 59
2009-07-27 09:58 51°17.425 2°52.523 10.4 350 17.9 101000 60
2009-07-27 09:59 51°17.236 2°52.417 10.5 352 17.9 101000 60
2009-07-27 10:00 51°17.04 2°52.388 8.7 358 17.8 101000 59
2009-07-27 10:01 51°16.848 2°52.448 5.8 -999 17.8 101000 61
2009-07-27 10:02 51°16.661 2°52.539 7.1 359 17.7 101010 60
2009-07-27 10:03 51°16.474 2°52.629 6.1 4 17.7 101010 60
2009-07-27 10:04 51°16.289 2°52.724 5.8 2 17.7 101010 60
2009-07-27 10:05 51°16.098 2°52.797 6.9 2 17.7 101010 60
2009-07-27 10:06 51°15.908 2°52.87 5.3 4 17.7 101020 63
2009-07-27 10:07 51°15.72 2°52.95 6 3 17.7 101020 61
2009-07-27 10:08 51°15.532 2°53.028 6.1 5 17.7 101030 63
2009-07-27 10:09 51°15.346 2°53.113 3.3 5 17.7 101020 61
2009-07-27 10:10 51°15.165 2°53.216 5.9 7 17.7 101020 63
2009-07-27 10:11 51°14.99 2°53.341 4.6 2 17.7 101020 63
2009-07-27 10:12 51°14.813 2°53.459 6.3 358 17.7 101020 63
2009-07-27 10:13 51°14.647 2°53.589 4.2 8 17.7 101020 60
2009-07-27 10:14 51°14.487 2°53.756 5.4 3 17.7 101030 61
2009-07-27 10:15 51°14.303 2°53.823 8.3 359 17.8 101010 62
2009-07-27 10:16 51°14.158 2°53.704 9.1 345 17.7 101000 60
2009-07-27 10:17 51°14.058 2°53.454 10 341 17.7 100970 60
2009-07-27 10:18 51°13.952 2°53.177 10.7 340 17.7 100970 59
2009-07-27 10:19 51°13.845 2°52.898 12.1 342 17.8 100990 60
2009-07-27 10:20 51°13.738 2°52.618 9.2 339 17.9 100990 61
2009-07-27 10:21 51°13.632 2°52.336 11.3 340 17.9 101000 60
2009-07-27 10:22 51°13.527 2°52.053 10.3 339 17.9 100990 59
2009-07-27 10:23 51°13.421 2°51.769 8.7 341 17.9 100980 59
2009-07-27 10:24 51°13.317 2°51.483 7.6 340 17.8 100960 59
2009-07-27 10:25 51°13.213 2°51.196 6.1 340 17.8 100950 58
2009-07-27 10:26 51°13.115 2°50.904 7.3 340 17.8 100930 59
2009-07-27 10:27 51°13.018 2°50.611 8.2 341 17.7 100940 58
2009-07-27 10:28 51°12.918 2°50.321 7.4 341 17.8 100930 57
2009-07-27 10:29 51°12.82 2°50.03 8.8 343 17.8 100930 59
2009-07-27 10:30 51°12.719 2°49.746 7.8 341 17.8 100940 59
2009-07-27 10:31 51°12.611 2°49.455 10.2 338 17.8 100970 58
2009-07-27 10:32 51°12.512 2°49.164 11.4 336 17.8 101000 59
2009-07-27 10:33 51°12.414 2°48.872 12.6 338 17.8 101020 58
2009-07-27 10:34 51°12.319 2°48.581 12.7 339 17.9 101020 58
2009-07-27 10:35 51°12.226 2°48.295 13.7 339 17.9 101020 60
2009-07-27 10:36 51°12.129 2°48.001 14.7 342 17.9 101010 59
2009-07-27 10:37 51°12.036 2°47.711 14.1 342 17.8 100990 62
2009-07-27 10:38 51°11.941 2°47.421 12.2 341 17.7 101000 62
2009-07-27 10:39 51°11.847 2°47.13 14.9 339 17.5 100990 62
2009-07-27 10:40 51°11.753 2°46.845 11.4 342 17.5 101010 63
2009-07-27 10:41 51°11.656 2°46.551 13.4 341 17.5 101000 64
2009-07-27 10:42 51°11.562 2°46.261 14.7 343 17.6 101020 65
2009-07-27 10:43 51°11.467 2°45.971 14.1 341 17.5 101020 64
2009-07-27 10:44 51°11.374 2°45.681 13.7 339 17.3 101020 64
2009-07-27 10:45 51°11.28 2°45.393 13.1 340 17.3 101030 65
2009-07-27 10:46 51°11.187 2°45.107 12.3 341 17.3 101030 66
2009-07-27 10:47 51°11.093 2°44.82 13.6 341 17.2 101030 65
2009-07-27 10:48 51°11 2°44.534 13.6 340 17.2 101030 65
2009-07-27 10:49 51°10.906 2°44.247 11.1 340 17.1 101030 65
2009-07-27 10:50 51°10.818 2°43.983 10.7 340 17.1 101030 67
2009-07-27 10:51 51°10.744 2°43.754 12.2 338 17.1 101030 65
2009-07-27 10:52 51°10.702 2°43.464 11.8 330 17 101040 66
2009-07-27 10:53 51°10.678 2°43.144 11.6 332 17 101040 66
2009-07-27 10:54 51°10.654 2°42.819 11.2 329 17.1 101050 66
2009-07-27 10:55 51°10.625 2°42.494 11 331 17.1 101050 65
2009-07-27 10:56 51°10.594 2°42.168 15.3 333 17.1 101040 66
2009-07-27 10:57 51°10.562 2°41.847 14.3 331 17.1 101040 65
2009-07-27 10:58 51°10.533 2°41.521 15.4 331 17.1 101040 66
2009-07-27 10:59 51°10.501 2°41.188 15.3 330 17.1 101050 66
2009-07-27 11:00 51°10.471 2°40.86 13.2 331 17.1 101050 66
2009-07-27 11:01 51°10.439 2°40.532 14.1 330 17.1 101060 65
2009-07-27 11:02 51°10.408 2°40.204 14.5 329 17.1 101050 66
2009-07-27 11:03 51°10.377 2°39.885 11.8 327 17.1 101050 64
2009-07-27 11:04 51°10.359 2°39.693 10.3 331 17.1 101070 64
2009-07-27 11:05 51°10.305 2°39.609 10.2 9 17.1 101070 67
2009-07-27 11:06 51°10.243 2°39.59 6.8 6 17 101080 64
2009-07-27 11:07 51°10.186 2°39.545 7.9 352 17 101080 66
2009-07-27 11:08 51°10.14 2°39.478 7 347 17 101070 64
2009-07-27 11:09 51°10.1 2°39.405 7.3 343 17 101070 64
2009-07-27 11:10 51°10.066 2°39.331 8.3 342 17 101070 65
2009-07-27 11:11 51°10.033 2°39.26 7.7 340 17 101070 66
2009-07-27 11:12 51°10.004 2°39.186 7.5 339 17 101070 64
2009-07-27 11:13 51°9.976 2°39.107 7 332 17 101070 64
2009-07-27 11:14 51°9.951 2°39.025 7 338 17 101070 65
2009-07-27 11:15 51°9.923 2°38.945 7.2 340 17 101070 66
2009-07-27 11:16 51°9.896 2°38.864 8.1 334 17.1 101080 65
2009-07-27 11:17 51°9.873 2°38.783 7.2 334 17 101080 66
2009-07-27 11:18 51°9.85 2°38.698 9.1 335 17 101070 65
2009-07-27 11:19 51°9.829 2°38.615 8.7 327 17 101070 64
2009-07-27 11:20 51°9.809 2°38.531 8.7 338 17 101070 66
2009-07-27 11:21 51°9.787 2°38.45 10.1 331 17 101070 64
2009-07-27 11:22 51°9.766 2°38.367 9.7 330 16.9 101080 66
2009-07-27 11:23 51°9.746 2°38.284 10.1 329 16.9 101070 65
2009-07-27 11:24 51°9.726 2°38.201 9 332 16.9 101070 66
2009-07-27 11:25 51°9.703 2°38.119 8.2 332 16.9 101070 66
2009-07-27 11:26 51°9.679 2°38.037 8.5 330 17 101080 66
2009-07-27 11:27 51°9.656 2°37.955 8.2 328 17 101080 63
2009-07-27 11:28 51°9.633 2°37.872 7.4 329 17 101070 66
2009-07-27 11:29 51°9.608 2°37.789 8.2 328 17 101070 66
2009-07-27 11:30 51°9.584 2°37.706 9.4 331 16.9 101060 66
2009-07-27 11:31 51°9.56 2°37.624 8.8 327 16.9 101080 66
2009-07-27 11:32 51°9.535 2°37.54 7.9 328 17 101070 65
2009-07-27 11:33 51°9.512 2°37.456 8.5 329 16.9 101070 66
2009-07-27 11:34 51°9.488 2°37.371 8.9 329 17 101070 64
2009-07-27 11:35 51°9.463 2°37.288 8 330 16.9 101070 63
2009-07-27 11:36 51°9.439 2°37.203 6.1 329 17 101070 66
2009-07-27 11:37 51°9.415 2°37.118 6.9 331 17.1 101070 64
2009-07-27 11:38 51°9.391 2°37.031 7.2 329 17.1 101070 67
2009-07-27 11:39 51°9.367 2°36.944 6.9 328 17.1 101060 65
2009-07-27 11:40 51°9.343 2°36.857 6.6 328 17.1 101060 66
2009-07-27 11:41 51°9.319 2°36.771 7.9 327 17.1 101060 66
2009-07-27 11:42 51°9.304 2°36.681 7.7 319 17 101050 66
2009-07-27 11:43 51°9.309 2°36.594 8.5 33 17.1 101050 66
2009-07-27 11:44 51°9.331 2°36.518 7.9 247 17.1 101080 65
2009-07-27 11:45 51°9.37 2°36.481 7.6 36 17.1 101080 67
2009-07-27 11:46 51°9.393 2°36.51 5.5 37 17.1 101090 64
2009-07-27 11:47 51°9.397 2°36.531 3.7 35 17.1 101090 92
2009-07-27 11:48 51°9.399 2°36.542 5.5 38 17.2 101100 93
2009-07-27 11:49 51°9.402 2°36.543 7 37 17.1 101090 93
2009-07-27 11:50 51°9.41 2°36.555 4.8 32 17.2 101100 93
2009-07-27 11:51 51°9.44 2°36.676 3.1 38 17.4 101100 94
2009-07-27 11:52 51°9.496 2°36.901 3.1 37 17.5 101100 93
2009-07-27 11:53 51°9.552 2°37.159 3 33 17.4 101100 91
2009-07-27 11:54 51°9.605 2°37.423 3.8 37 17.3 101100 90
2009-07-27 11:55 51°9.659 2°37.688 2.3 40 17.3 101110 91
2009-07-27 11:56 51°9.716 2°37.951 5 40 17.3 101110 90
2009-07-27 11:57 51°9.782 2°38.208 4.3 262 16.9 101110 84
2009-07-27 11:58 51°9.847 2°38.467 8.8 252 16.6 101110 88
2009-07-27 11:59 51°9.911 2°38.728 9.6 256 16.5 101100 90
2009-07-27 12:00 51°9.975 2°38.989 11.9 256 16.3 101110 91
2009-07-27 12:01 51°10.04 2°39.249 9.2 256 16.1 101110 91
2009-07-27 12:02 51°10.104 2°39.51 7.4 256 15.9 101110 91
2009-07-27 12:03 51°10.162 2°39.776 8.2 261 15.8 101120 91
2009-07-27 12:04 51°10.222 2°40.04 5.3 262 15.7 101110 93
2009-07-27 12:05 51°10.278 2°40.305 7.2 261 15.6 101110 93
2009-07-27 12:06 51°10.336 2°40.571 7.6 260 15.5 101110 93
2009-07-27 12:07 51°10.395 2°40.835 8.8 261 15.5 101120 94
2009-07-27 12:08 51°10.453 2°41.1 7.1 259 15.5 101110 94
2009-07-27 12:09 51°10.511 2°41.366 6.8 263 15.4 101110 94
2009-07-27 12:10 51°10.569 2°41.633 7.4 259 15.3 101110 95
2009-07-27 12:11 51°10.627 2°41.9 8.5 260 15.3 101120 95
2009-07-27 12:12 51°10.686 2°42.168 12.5 261 15.2 101120 95
2009-07-27 12:13 51°10.745 2°42.436 7.5 265 15.2 101120 95
2009-07-27 12:14 51°10.805 2°42.701 6.9 268 15.1 101120 96
2009-07-27 12:15 51°10.863 2°42.968 11.9 262 15.1 101110 95
2009-07-27 12:16 51°10.921 2°43.23 8.3 262 15.1 101110 96
2009-07-27 12:17 51°10.98 2°43.501 10 259 15 101120 95
2009-07-27 12:18 51°11.04 2°43.76 7.9 263 15 101110 95
2009-07-27 12:19 51°11.098 2°44.027 7.2 265 15 101120 96
2009-07-27 12:20 51°11.157 2°44.293 8.9 261 15 101130 96
2009-07-27 12:21 51°11.217 2°44.557 6.5 267 15 101130 97
2009-07-27 12:22 51°11.275 2°44.823 10.7 261 15.1 101140 97
2009-07-27 12:23 51°11.334 2°45.089 5 264 15 101140 96
2009-07-27 12:24 51°11.392 2°45.356 7.9 263 14.9 101140 96
2009-07-27 12:25 51°11.448 2°45.628 7.9 261 14.8 101140 97
2009-07-27 12:26 51°11.51 2°45.889 9.9 261 14.9 101140 97
2009-07-27 12:27 51°11.577 2°46.152 9.4 258 14.9 101140 97
2009-07-27 12:28 51°11.643 2°46.416 9.3 262 14.9 101140 97
2009-07-27 12:29 51°11.714 2°46.682 7.4 264 14.9 101150 97
2009-07-27 12:30 51°11.789 2°46.941 10.2 262 14.8 101150 97
2009-07-27 12:31 51°11.865 2°47.2 9.2 256 14.8 101140 96
2009-07-27 12:32 51°11.94 2°47.455 7 264 14.8 101150 97
2009-07-27 12:33 51°12.015 2°47.714 6.8 261 14.8 101150 97
2009-07-27 12:34 51°12.093 2°47.978 6.5 264 14.7 101160 96
2009-07-27 12:35 51°12.167 2°48.236 9.1 260 14.7 101150 97
2009-07-27 12:36 51°12.244 2°48.498 5.9 263 14.7 101140 95
2009-07-27 12:37 51°12.32 2°48.763 10.1 259 14.7 101130 96
2009-07-27 12:38 51°12.396 2°49.027 8.8 261 14.8 101150 96
2009-07-27 12:39 51°12.473 2°49.289 10 258 14.8 101150 96
2009-07-27 12:40 51°12.552 2°49.55 9.7 259 14.7 101140 97
2009-07-27 12:41 51°12.638 2°49.806 11.4 259 14.7 101160 96
2009-07-27 12:42 51°12.724 2°50.061 6 262 14.7 101150 94
2009-07-27 12:43 51°12.806 2°50.319 7.4 261 14.6 101160 95
2009-07-27 12:44 51°12.893 2°50.571 10.8 252 14.6 101160 97
2009-07-27 12:45 51°12.984 2°50.82 7.9 261 14.7 101160 97
2009-07-27 12:46 51°13.072 2°51.07 6.4 261 14.6 101170 97
2009-07-27 12:47 51°13.156 2°51.329 10 259 14.7 101160 97
2009-07-27 12:48 51°13.237 2°51.584 6.5 261 14.7 101170 96
2009-07-27 12:49 51°13.319 2°51.834 9.8 258 14.7 101150 97
2009-07-27 12:50 51°13.409 2°52.083 8.1 260 14.7 101150 96
2009-07-27 12:51 51°13.5 2°52.332 7.7 260 14.8 101150 97
2009-07-27 12:52 51°13.593 2°52.58 8.7 254 14.9 101160 97
2009-07-27 12:53 51°13.691 2°52.82 10.7 257 14.9 101150 98
2009-07-27 12:54 51°13.791 2°53.059 8.9 259 15 101150 97
2009-07-27 12:55 51°13.893 2°53.298 9.7 304 15 101150 97
2009-07-27 12:56 51°13.992 2°53.541 10.6 256 15 101160 96
2009-07-27 12:57 51°14.085 2°53.789 8.8 252 15 101150 96
2009-07-27 12:58 51°14.167 2°54.05 9.1 258 14.9 101160 97
2009-07-27 12:59 51°14.241 2°54.315 12 308 14.9 101160 97
2009-07-27 13:00 51°14.32 2°54.578 11.3 252 14.8 101150 97
2009-07-27 13:01 51°14.358 2°54.861 4.5 265 14.7 101160 96
2009-07-27 13:02 51°14.314 2°55.15 4.6 38 14.6 101160 97
2009-07-27 13:03 51°14.197 2°55.346 5.3 33 14.7 101140 97
2009-07-27 13:04 51°14.066 2°55.453 4.8 37 14.6 101150 94
2009-07-27 13:05 51°13.938 2°55.544 3.2 13 14.7 101150 96
2009-07-27 13:06 51°13.834 2°55.621 3.2 20 14.7 101150 96
2009-07-27 13:07 51°13.754 2°55.718 1.7 5 14.7 101160 97
2009-07-27 13:08 51°13.7 2°55.824 0.7 11 14.7 101160 96
2009-07-27 13:09 51°13.67 2°55.919 5.9 39 14.7 101170 96
2009-07-27 13:10 51°13.662 2°55.954 2.9 55 14.8 101170 97